Home > Weather > Gander > Past weeks

Flag for Canada Weather for the Past 2 Weeks in Gander, Newfoundland and Labrador, Canada

Now
34 °F

Light rain. Fog.


Feels Like: 25 °F
Forecast: 33 / 56 °F
Wind: 12 mph from East

Location: Gander Int. Airport

Current Time: May 5, 2016 at 11:42:22 PM

Latest Report: May 5, 2016 at 10:30 PM


Visibility: 2 mi

Pressure: 30.11 "Hg

Humidity: 100%

Dew Point: 34 °F

Location of GanderLocation

Historic Weather in Gander — Graph

°F

Gander Temperature Yesterday

Maximum temperature yesterday: 41 °F (at 2:30 PM)
Minimum temperature yesterday: 34 °F (at 2:30 AM)
Average temperature yesterday: 36 °F

High & Low Weather Summary for the Past Weeks

 TemperatureHumidityPressure
High55 °F (Apr 24, 2:30 PM)100% (Apr 21, 6:19 PM)30.33 "Hg (Apr 21, 6:19 PM)
Low21 °F (Apr 26, 5:30 AM)33% (Apr 29, 3:30 PM)29.23 "Hg (Apr 21, 3:30 AM)
Average37 °F78%29.85 "Hg
* Reported Apr 20 10:30 PM — May 5 10:30 PM, Gander, Weather by CustomWeather, © 2016

Note: Actual official high and low records may vary slightly from our data, if they occured in-between our weather recording intervals... More about our weather records

Advertising

Gander Weather History for the Previous 24 Hours

Scroll right to see more
 ConditionsComfort  
Time TempWeatherWind HumidityBarometerVisibility
10:30 PM
Thu, May 5
34 °FLight rain. Fog.12 mph100%30.11 "Hg2 mi
10:19 PM34 °FLight rain. Fog.10 mph100%30.12 "Hg2 mi
9:30 PM36 °FLight rain. Fog.13 mph93%30.14 "Hg4 mi
8:30 PM36 °FLight rain. Fog.13 mph93%30.13 "Hg4 mi
7:30 PM36 °FLight rain. Fog.12 mph93%30.14 "Hg4 mi
6:30 PM37 °FLight rain. Fog.13 mph93%30.15 "Hg4 mi
5:30 PM37 °FLight rain. Fog.8 mph93%30.17 "Hg4 mi
4:30 PM39 °FLight rain. Cloudy.15 mph87%30.15 "Hg10 mi
4:20 PM39 °FLight rain. More clouds than sun.12 mph87%30.15 "Hg12 mi
3:30 PM41 °FLight rain. Overcast.9 mph81%30.16 "Hg20 mi
2:30 PM41 °FOvercast.10 mph81%30.16 "Hg20 mi
1:30 PM41 °FOvercast.6 mph76%30.16 "Hg20 mi
12:30 PM41 °FOvercast.6 mph76%30.17 "Hg20 mi
11:30 AM39 °FOvercast.6 mph81%30.18 "Hg20 mi
10:30 AM37 °FDrizzle. Low clouds.9 mph87%30.16 "Hg20 mi
9:30 AM36 °FDrizzle. Low clouds.8 mph93%30.16 "Hg12 mi
8:30 AM34 °FDrizzle. Fog.9 mph100%30.15 "Hg4 mi
8:17 AM34 °FDrizzle. Fog.10 mph100%30.14 "Hg5 mi
7:30 AM34 °FDrizzle. Fog.8 mph93%30.14 "Hg3 mi
6:30 AM32 °FDrizzle. Ice fog.8 mph100%30.12 "Hg4 mi
5:30 AM32 °FDrizzle. Ice fog.9 mph100%30.10 "Hg4 mi
5:17 AM32 °FDrizzle. Ice fog.9 mph100%30.09 "Hg4 mi
4:30 AM34 °FDrizzle. Fog.9 mph93%30.07 "Hg1 mi
3:30 AM32 °FDrizzle. Fog.8 mph100%30.07 "Hg0 mi
3:19 AM32 °FDrizzle. Fog.8 mph100%30.06 "Hg0 mi
2:30 AM32 °FDrizzle. Fog.10 mph100%30.06 "Hg1 mi
1:30 AM32 °FDrizzle. Ice fog.13 mph100%30.05 "Hg1 mi
1:15 AM32 °FDrizzle. Ice fog.13 mph100%30.05 "Hg1 mi
12:30 AM34 °FDrizzle. Fog.12 mph93%30.04 "Hg2 mi
11:30 PM
Wed, May 4
34 °FDrizzle. Fog.9 mph93%30.01 "Hg2 mi
11:22 PM34 °FDrizzle. Fog.12 mph93%30.01 "Hg2 mi
Weather by CustomWeather, © 2016

See weather overviewHow to use our weather pages